Location: Ferma
(41.9500°N, 44.5167°E)
Time: 20:33:31
(UTC+00:00)

BREEZE-M DEB (TANK) - Pass Details

Date: 31 May 2022
Orbit: 338 x 14778 km, 49.6° (Epoch: 25 June)

Event Time Altitude Azimuth Distance (km) Brightness Sun altitude
Rises 17:17:11 0° 314° (NW) 17,935 13.1 -8.0°
Reaches altitude 10° 17:38:36 10° 312° (NW) 18,374 12.3 -11.0°
Maximum altitude 19:13:33 33° 276° (W) 13,107 10.1 -21.5°
Drops below altitude 10° 19:53:41 10° 219° (SW) 8,082 8.6 -24.3°
Enters shadow 19:59:02 - 208° (SSW) 7,806 8.5 -24.5°
